[[{"header":{"parameterUnit":"m.s-1","parameterCategory":1,"la1":30.2991,"la2":30.254,"lo1":-89.0895,"lo2":-89.0444,"dy":0.0017,"dx":0.0017,"nx":28,"ny":28,"refTime":"2025-09-05T03:00:00:Z","depth":0,"parameterNumber":2,"parameterNumberName":"U-component_of_WINDS"},"data":[0,0,0,0,0,0,0,0,0,0,0,0,0,0,0,0,0,0,0,0,0,0,0,0,0,0,0,0,0,0,0,0,0,0,0,0,0,0,0,0,0,0,0,0,0,0,0,0,0,0,0,0,0,0,0,0,0,0,0.4925,0.4926,0,0.4982,0.4983,0.4984,0.5005,0.5005,0.5005,0.5005,0.5064,0.5066,0.5068,0,0,0,0,0,0,0,0,0,0,0,0,0,0.4835,0.4837,0.4925,0.4926,0.4927,0.4982,0.4983,0.4984,0.5005,0.5005,0.5005,0.5005,0.5064,0.5066,0.5068,0,0,0,0,0,0,0,0,0,0,0,0,0,0.4881,0.4837,0.4925,0.4944,0.4947,0.4982,0.4983,0.4984,0.5005,0.5005,0.5005,0.5005,0.5063,0.5066,0.5068,0.5089,0,0,0.5076,0.5077,0,0,0,0,0,0,0,0,0.4879,0.4885,0.4941,0.4943,0.4946,0.4987,0.4973,0.5019,0.5006,0.4983,0.5005,0.5005,0.5039,0.5043,0.5055,0.5092,0.5095,0.5076,0.5078,0.5079,0.508,0,0,0,0,0,0,0,0.4875,0.4882,0.4948,0.4942,0.4945,0.495,0.4956,0.4982,0.5012,0.4985,0.4987,0.4993,0.504,0.5052,0.5056,0.5096,0.5076,0.5079,0.508,0.5081,0.5152,0.5153,0,0,0,0,0,0,0.4869,0.4879,0.4946,0.495,0.4911,0.4952,0.4959,0.4974,0.5011,0.5017,0.4993,0.4994,0.5048,0.5053,0.5058,0.5085,0.5079,0.5081,0.5083,0.5152,0.5152,0.5153,0,0,0,0,0,0,0.4867,0.4875,0.4944,0.4915,0.4924,0.4953,0.497,0.4975,0.4987,0.5018,0.5023,0.5,0.5048,0.5055,0.5081,0.5087,0.5083,0.5085,0.5152,0.5152,0.5152,0.5139,0,0,0,0,0,0,0.4864,0.4874,0.4883,0.4915,0.4926,0.4966,0.4971,0.4976,0.4991,0.4993,0.5026,0.5031,0.5048,0.5077,0.5084,0.5091,0.5087,0.5151,0.5152,0.5152,0.5139,0.5139,0.5139,0,0,0,0,0,0.4861,0.4877,0.4883,0.4891,0.4937,0.4966,0.4972,0.4992,0.4992,0.5,0.502,0.503,0.5085,0.508,0.5087,0.5095,0.5151,0.5152,0.5152,0.5139,0.5139,0.5139,0,0,0,0,0,0,0.4845,0.4882,0.4889,0.4916,0.4937,0.497,0.4982,0.4991,0.5014,0.5014,0.5037,0.5044,0.5069,0.5085,0.5078,0.5117,0.5119,0.5121,0.5106,0.5106,0.5106,0.5102,0.5089,0,0,0,0,0,0.4844,0.4865,0.4896,0.4917,0.4927,0.4952,0.4966,0.4979,0.5002,0.5012,0.5034,0.5056,0.5079,0.5094,0.5116,0.5141,0.5148,0.515,0.515,0.515,0.5152,0.5165,0.5167,0.5155,0.5155,0.5155,0,0,0.4844,0.4866,0.4878,0.4914,0.4933,0.4953,0.496,0.4982,0.4998,0.5015,0.5042,0.5058,0.5085,0.511,0.5123,0.5125,0.5156,0.5151,0.5151,0.5153,0.5166,0.5167,0.5168,0.5156,0.5155,0.5155,0,0,0.4853,0.4873,0.4892,0.491,0.4937,0.4954,0.4958,0.4989,0.5,0.5026,0.504,0.5059,0.5097,0.5116,0.513,0.5144,0.5154,0.5151,0.5151,0.5164,0.5165,0.5166,0.5171,0.5172,0.5153,0.5153,0.5153,0,0.4849,0.4881,0.49,0.4921,0.4936,0.4952,0.4972,0.4988,0.5022,0.5032,0.5033,0.5081,0.51,0.513,0.5133,0.5144,0.515,0.5148,0.5163,0.5164,0.5165,0.517,0.5172,0.5152,0.5152,0.5152,0.5152,0,0.4874,0.4896,0.4908,0.4939,0.4956,0.4976,0.4998,0.5012,0.5022,0.5038,0.5064,0.5088,0.5115,0.5123,0.5134,0.5154,0.5154,0.5159,0.5161,0.5166,0.517,0.5172,0.5151,0.5152,0.5152,0.5152,0,0,0.4877,0.4917,0.4922,0.4936,0.4966,0.4984,0.5004,0.5029,0.5041,0.5063,0.508,0.5112,0.5116,0.5132,0.5145,0.5156,0.5165,0.516,0.5161,0.516,0.5188,0.5184,0.5186,0.5172,0.5172,0.5172,0.5185,0,0.489,0.4927,0.4944,0.4973,0.4993,0.5008,0.5025,0.5046,0.5061,0.508,0.5096,0.5118,0.5122,0.5132,0.5144,0.5162,0.5171,0.5161,0.5188,0.5188,0.5181,0.5189,0.5185,0.5197,0.5188,0.5188,0.5188,0,0.4911,0.4933,0.4964,0.4991,0.5,0.5016,0.504,0.5058,0.5081,0.5091,0.5108,0.5121,0.5142,0.5141,0.517,0.5163,0.5175,0.5185,0.5186,0.519,0.5189,0.5193,0.5201,0.5203,0.5191,0.5191,0.5191,0,0.491,0.4946,0.4969,0.4981,0.5014,0.5024,0.5038,0.5061,0.5075,0.5096,0.5105,0.5129,0.5142,0.5159,0.5177,0.5176,0.5204,0.5206,0.5213,0.5213,0.5219,0.5219,0.523,0.5226,0.5226,0.5226,0.5226,0,0.4923,0.4942,0.4969,0.4983,0.5004,0.5023,0.5043,0.5058,0.5078,0.5095,0.5109,0.5124,0.5147,0.5165,0.5179,0.5201,0.5207,0.5215,0.5219,0.5214,0.5213,0.5222,0.5222,0.5227,0.5226,0.5226,0.5226,0,0.4925,0.4944,0.497,0.4999,0.5006,0.502,0.5044,0.5058,0.5073,0.5095,0.5101,0.5124,0.5146,0.5166,0.5195,0.5204,0.5226,0.5231,0.5218,0.522,0.5227,0.5226,0.5244,0.5248,0.5242,0.5242,0.5242,0,0.4933,0.4947,0.4977,0.4989,0.5003,0.5023,0.5037,0.5056,0.507,0.5096,0.5107,0.513,0.5149,0.5183,0.5203,0.5225,0.523,0.5235,0.5234,0.5228,0.523,0.5229,0.523,0.5235,0.5235,0.5235,0.5235,0,0.4944,0.4953,0.4973,0.4995,0.5012,0.5031,0.505,0.5059,0.5081,0.5096,0.5119,0.5134,0.5163,0.5185,0.5209,0.5223,0.5233,0.5235,0.5238,0.5234,0.5226,0.523,0.5218,0.5235,0.5235,0.5235,0.5235,0.5235,0.4949,0.4963,0.4985,0.5006,0.5023,0.504,0.5054,0.5071,0.509,0.5115,0.5125,0.5147,0.5169,0.5202,0.5216,0.5233,0.5235,0.5239,0.524,0.5241,0.524,0.5223,0.5238,0.5238,0.5238,0.5238,0.5238,0,0.4961,0.4976,0.4996,0.5022,0.5038,0.5045,0.5067,0.508,0.51,0.5119,0.5137,0.5162,0.5184,0.5204,0.5226,0.5236,0.5241,0.5242,0.5241,0.5244,0.5238,0.5233,0.5237,0.5237,0.5237,0.5237,0.5237,0.5237,0.497,0.4992,0.5003,0.5033,0.5048,0.507,0.5081,0.5097,0.5112,0.514,0.5157,0.517,0.519,0.5213,0.5233,0.5238,0.5246,0.5245,0.5251,0.5245,0.5245,0.5245,0.524,0.5246,0.5246,0.5257,0.5257,0.5257]},{"header":{"parameterUnit":"m.s-1","parameterCategory":1,"la1":30.2991,"la2":30.254,"lo1":-89.0895,"lo2":-89.0444,"dy":0.0017,"dx":0.0017,"nx":28,"ny":28,"refTime":"2025-09-05T03:00:00:Z","depth":0,"parameterNumber":3,"parameterNumberName":"V-component_of_WINDS"},"data":[0,0,0,0,0,0,0,0,0,0,0,0,0,0,0,0,0,0,0,0,0,0,0,0,0,0,0,0,0,0,0,0,0,0,0,0,0,0,0,0,0,0,0,0,0,0,0,0,0,0,0,0,0,0,0,0,0,0,4.0655,4.0655,0,4.0648,4.0648,4.0648,4.0674,4.0675,4.0676,4.0677,4.0666,4.0665,4.0664,0,0,0,0,0,0,0,0,0,0,0,0,0,4.0687,4.0686,4.0655,4.0655,4.0655,4.0648,4.0648,4.0648,4.0674,4.0675,4.0676,4.0677,4.0666,4.0665,4.0664,0,0,0,0,0,0,0,0,0,0,0,0,0,4.0676,4.0686,4.0655,4.0667,4.0668,4.0648,4.0648,4.0648,4.0674,4.0675,4.0676,4.0677,4.0667,4.0665,4.0664,4.0631,0,0,4.0659,4.0658,0,0,0,0,0,0,0,0,4.0677,4.0675,4.0666,4.0667,4.0668,4.0664,4.0656,4.0642,4.0674,4.0672,4.0677,4.0678,4.0664,4.0663,4.0659,4.063,4.063,4.0659,4.0658,4.0657,4.0657,0,0,0,0,0,0,0,4.0677,4.0675,4.0653,4.0666,4.0667,4.0672,4.0672,4.0653,4.0661,4.0672,4.0674,4.0673,4.0665,4.066,4.0659,4.063,4.0659,4.0658,4.0657,4.0656,4.0571,4.057,0,0,0,0,0,0,4.0677,4.0676,4.0653,4.0652,4.0675,4.067,4.067,4.0664,4.0662,4.0662,4.0672,4.0674,4.0662,4.066,4.0658,4.0618,4.0657,4.0656,4.0655,4.0572,4.0571,4.0569,0,0,0,0,0,0,4.0678,4.0675,4.0653,4.0665,4.0662,4.0669,4.0661,4.0663,4.0658,4.0662,4.0663,4.0666,4.0663,4.0661,4.0637,4.0618,4.0655,4.0654,4.0574,4.0572,4.057,4.0537,0,0,0,0,0,0,4.0678,4.0675,4.0663,4.0664,4.0661,4.0633,4.066,4.0662,4.0656,4.0659,4.0656,4.0657,4.0664,4.0639,4.0636,4.0616,4.0653,4.0576,4.0573,4.0571,4.054,4.0534,4.0529,0,0,0,0,0,4.068,4.0654,4.0663,4.066,4.0647,4.0632,4.063,4.064,4.0654,4.0642,4.0644,4.0657,4.0621,4.0637,4.0633,4.0613,4.0577,4.0574,4.0571,4.0542,4.0535,4.0529,0,0,0,0,0,0,4.065,4.0654,4.0664,4.0638,4.0635,4.0636,4.0621,4.0632,4.0623,4.0626,4.0637,4.0636,4.061,4.0609,4.0627,4.0579,4.0601,4.0597,4.0581,4.0574,4.0569,4.0569,4.0651,0,0,0,0,0,4.0641,4.0629,4.0633,4.061,4.0608,4.0615,4.0608,4.0616,4.0612,4.061,4.061,4.0605,4.0592,4.0583,4.0572,4.054,4.0539,4.0524,4.0519,4.0515,4.0511,4.0491,4.0484,4.0559,4.0559,4.0559,0,0,4.0621,4.0622,4.0614,4.0604,4.0602,4.0588,4.0613,4.0598,4.0587,4.0607,4.0585,4.0585,4.0579,4.0551,4.0539,4.0549,4.049,4.0511,4.0508,4.0506,4.0488,4.048,4.0474,4.0557,4.0558,4.0558,0,0,4.0577,4.0578,4.0558,4.0555,4.0552,4.0557,4.0552,4.0552,4.0553,4.0531,4.0545,4.0532,4.0511,4.0505,4.05,4.0453,4.0464,4.0449,4.0421,4.0402,4.0396,4.0391,4.0372,4.0365,4.0445,4.0445,4.0445,0,4.0553,4.0534,4.0546,4.0529,4.0523,4.0543,4.0521,4.0518,4.051,4.0505,4.0518,4.049,4.0488,4.0458,4.0446,4.0442,4.0435,4.0449,4.0396,4.0391,4.0386,4.0368,4.0361,4.0443,4.0444,4.0444,4.0444,0,4.0502,4.0489,4.0473,4.0466,4.0458,4.0439,4.0447,4.0438,4.0446,4.0449,4.0425,4.0423,4.041,4.0404,4.0412,4.0374,4.0381,4.0395,4.0416,4.0377,4.036,4.0354,4.0441,4.0441,4.0442,4.0442,0,0,4.0439,4.044,4.0433,4.043,4.0427,4.0416,4.0397,4.0386,4.0377,4.0371,4.0354,4.0334,4.0347,4.0341,4.0348,4.0331,4.0292,4.0347,4.0347,4.0335,4.0247,4.0235,4.0227,4.0299,4.0298,4.0297,4.0247,0,4.0395,4.0364,4.0374,4.0341,4.0327,4.0345,4.0328,4.0324,4.0325,4.0313,4.0314,4.03,4.0319,4.0315,4.0299,4.03,4.0274,4.0304,4.0281,4.028,4.028,4.0219,4.0206,4.0159,4.024,4.0239,4.0239,0,4.0339,4.0332,4.0298,4.0296,4.0291,4.0276,4.0265,4.0254,4.0248,4.0251,4.0243,4.0253,4.0232,4.0255,4.0225,4.0245,4.0237,4.0235,4.0234,4.023,4.0256,4.0212,4.0144,4.0136,4.0229,4.023,4.023,0,4.0294,4.0275,4.0252,4.0249,4.0247,4.0236,4.0234,4.023,4.0222,4.0213,4.0207,4.0195,4.0188,4.0177,4.0183,4.02,4.0151,4.0175,4.015,4.015,4.0138,4.0138,4.0066,4.0135,4.0136,4.0136,4.0136,0,4.0242,4.022,4.0232,4.0217,4.0192,4.0204,4.0178,4.0179,4.0175,4.0159,4.0174,4.0159,4.0168,4.0153,4.0157,4.013,4.0127,4.0127,4.0128,4.0124,4.0124,4.0117,4.012,4.0134,4.0134,4.0135,4.0135,0,4.0187,4.0194,4.017,4.017,4.017,4.0151,4.0151,4.0136,4.0139,4.0119,4.0115,4.0119,4.0102,4.0107,4.0088,4.0091,4.0056,4.0062,4.0058,4.0059,4.0032,4.0034,3.9952,3.9941,4.0019,4.0019,4.0018,0,4.0152,4.0136,4.0135,4.0126,4.0124,4.0109,4.0101,4.0111,4.0102,4.0094,4.008,4.0064,4.0052,4.0023,4.0023,4.0008,4.0013,3.9985,4.0011,4.0007,4.001,4.001,4.0007,3.9979,3.9979,3.9978,3.9977,0,4.009,4.0094,4.0083,4.0072,4.0062,4.0054,4.0047,4.0038,4.0048,4.0036,4.0019,4.001,3.9991,3.9974,3.996,3.9957,3.9967,3.9969,3.9962,3.9958,3.9955,3.9954,4.0042,3.9971,3.9971,3.9972,3.9972,3.9973,4.0042,4.0028,4.0024,4.0011,4.0007,3.9999,3.9985,3.9987,3.9973,3.9959,3.9966,3.9945,3.9938,3.9921,3.9916,3.9899,3.9909,3.99,3.9897,3.9894,3.9889,3.9959,3.9897,3.9897,3.9897,3.9897,3.9897,0,3.9978,3.9977,3.9965,3.9955,3.9943,3.9956,3.9949,3.9938,3.992,3.9914,3.9902,3.9881,3.9864,3.9863,3.9847,3.9833,3.9838,3.9828,3.9828,3.9827,3.9882,3.9889,3.9825,3.9825,3.9825,3.9825,3.9825,3.9825,3.9944,3.9919,3.9923,3.9896,3.9894,3.9876,3.987,3.9862,3.9857,3.9834,3.9821,3.982,3.9815,3.9799,3.9783,3.9783,3.9775,3.9764,3.9765,3.9816,3.9823,3.983,3.9836,3.9763,3.9763,3.9711,3.9711,3.971]}]]